Theta_e
295 290 288 288 291 293 293 293 294 293 291 290 288 287 287 288 288 290 292 293 292 292 289 291 291 290 291 292 293 292 292 292 292 291 292 292 293 292 292 291 291 290 291 292 293 293 294 295 295 299 302 302 303 303 303 301 301 301 300 300 299 299 299 299 298 297 296 294 293 293 292 291 291 291 291 291 291 292 292 293 293 293 293 293 293 292
297 290 289 293 295 294 294 294 293 293 292 291 290 288 288 286 288 290 294 293 292 292 286 288 289 289 291 293 294 293 290 291 292 292 292 292 293 293 292 291 290 290 291 291 292 293 292 294 298 300 301 301 301 300 301 301 301 301 301 299 299 299 298 297 297 296 295 294 294 292 291 291 291 290 289 289 290 291 291 291 291 291 291 291 290 290
290 290 293 295 294 294 294 292 292 292 291 290 290 288 287 288 288 291 291 291 292 292 289 287 288 291 292 293 294 293 293 294 294 294 294 293 292 292 292 291 290 290 290 291 292 291 291 294 298 299 301 301 301 300 298 297 299 299 298 299 297 297 296 296 295 294 293 293 292 291 290 289 288 290 290 290 290 290 289 289 289 290 289 289 288 288
288 288 294 295 294 294 293 292 291 291 291 289 288 286 287 287 288 287 288 290 292 291 288 287 288 290 292 293 295 296 295 293 291 293 293 294 294 292 292 292 291 290 290 290 291 292 291 293 296 297 299 299 299 298 298 298 297 296 296 296 296 296 295 295 295 294 293 292 291 291 290 290 289 288 289 289 289 288 288 287 288 288 287 287 286 286
291 293 295 295 294 295 293 292 290 290 290 287 290 288 287 288 288 290 288 291 289 291 290 290 290 291 292 294 295 294 289 291 292 292 291 291 293 293 292 291 291 290 290 290 291 291 291 292 294 297 299 298 297 298 298 297 296 296 295 295 295 294 294 293 293 292 291 290 289 289 289 289 288 288 288 287 286 286 287 286 285 285 285 286 286 286
292 294 293 294 292 293 293 291 290 291 287 288 288 291 291 289 291 288 290 291 283 285 286 290 283 279 281 287 291 291 288 289 289 290 290 291 291 291 291 291 290 290 291 291 291 291 291 292 293 295 297 297 297 298 298 297 296 296 296 295 295 294 293 292 292 291 291 289 288 287 286 285 285 284 284 284 283 283 283 284 284 284 285 285 285 285
293 295 294 292 292 291 291 291 290 292 290 286 288 290 292 291 290 289 289 289 282 282 287 289 286 281 282 288 289 287 287 289 288 288 289 289 290 290 291 290 290 290 289 290 291 291 290 290 291 293 296 296 296 298 297 296 295 295 295 295 294 293 292 292 291 291 290 288 288 287 286 285 284 283 283 283 283 283 283 284 283 283 284 284 284 284
293 293 293 291 291 290 289 289 291 293 290 285 287 289 290 290 289 288 288 289 284 283 287 286 283 282 286 287 293 291 289 289 289 289 288 289 289 290 290 290 290 289 289 290 290 290 290 290 291 292 295 295 295 296 296 295 295 294 293 293 292 291 291 291 290 288 287 286 285 284 284 284 283 283 283 283 283 283 284 283 282 283 283 283 283 283
293 291 292 291 290 289 290 292 291 294 290 287 290 290 289 290 288 287 288 284 284 284 283 285 286 284 283 283 286 288 288 290 291 290 290 290 289 289 289 289 289 289 289 290 290 290 290 290 290 291 293 294 294 295 296 295 295 294 293 292 292 292 291 290 288 287 286 286 285 285 284 283 283 283 283 284 284 283 283 282 282 282 282 282 282 282
294 293 294 295 293 291 290 289 290 294 290 291 289 290 289 287 286 283 282 286 282 280 281 284 287 282 286 283 287 285 286 290 292 294 291 290 290 289 289 288 289 288 288 289 290 290 290 290 289 289 290 292 294 294 295 294 294 293 293 292 292 291 290 288 286 286 285 285 285 284 284 283 283 283 283 282 282 281 281 281 281 281 281 281 281 281
294 294 294 294 292 292 289 289 288 292 291 292 290 291 288 284 283 280 280 280 281 280 284 285 287 286 282 283 288 287 288 290 291 289 288 290 290 289 289 288 288 288 288 288 288 289 289 288 288 288 290 292 292 292 292 293 293 292 292 291 291 290 288 287 286 286 285 284 284 284 284 283 283 282 282 281 281 281 280 280 280 280 280 280 280 281
291 291 293 291 293 290 291 290 289 290 291 293 286 283 285 285 280 277 276 278 277 280 281 286 287 287 282 280 283 289 289 288 290 290 288 289 290 290 289 289 288 288 288 288 288 287 286 286 286 288 289 290 290 290 291 291 291 290 290 290 289 287 286 286 286 285 285 284 284 284 284 283 283 283 282 281 281 280 280 280 280 279 280 279 280 280
287 289 289 292 293 294 288 290 289 287 290 290 288 289 285 278 273 275 273 276 277 280 281 282 285 282 285 289 285 287 290 289 289 292 291 290 290 290 289 289 288 288 287 287 287 286 286 286 286 287 287 287 288 290 290 290 290 290 288 288 287 285 285 285 285 285 285 284 284 284 284 284 284 283 282 281 281 280 280 280 279 279 279 279 279 279
286 283 288 290 292 293 295 291 284 285 288 288 288 285 283 275 275 274 270 269 272 276 279 280 283 283 282 286 293 296 297 290 287 288 289 290 290 290 289 288 288 287 287 287 286 286 286 286 286 287 287 287 288 289 289 288 289 289 288 287 287 286 285 285 285 285 285 284 284 284 284 284 284 282 282 281 281 280 280 280 280 279 279 279 279 279
280 282 288 290 288 292 295 296 294 291 288 290 289 291 287 283 275 275 275 276 276 274 276 278 280 277 281 285 287 286 286 285 286 287 287 288 289 289 288 287 287 286 286 286 285 285 286 286 286 286 286 286 287 288 288 288 288 287 287 286 286 285 285 285 285 285 285 285 284 284 284 284 283 282 282 281 282 280 280 279 279 279 279 279 279 279
287 286 285 293 290 293 294 293 291 288 288 286 286 287 284 286 282 283 275 273 273 272 273 274 280 280 285 285 284 284 284 286 285 286 287 286 286 287 286 286 287 287 286 286 285 285 285 285 285 286 285 286 286 287 287 287 287 286 286 286 286 285 285 285 285 285 285 285 284 284 283 283 283 283 282 282 282 280 279 279 279 279 279 279 279 279
283 282 286 288 291 294 294 292 292 294 287 286 288 287 289 288 288 279 277 279 275 273 277 274 279 281 283 288 285 286 288 287 285 286 285 285 285 286 286 286 286 286 286 285 285 285 284 284 284 285 285 285 286 286 286 286 286 286 286 285 285 285 285 285 285 285 285 285 284 283 283 283 282 282 281 281 280 279 279 279 279 279 279 279 279 280
285 282 287 287 288 289 287 289 289 289 290 287 283 288 289 289 287 284 281 276 273 275 276 277 280 280 281 282 282 285 285 286 285 285 285 284 284 286 286 286 286 286 286 285 285 285 285 284 284 284 285 285 286 286 285 285 285 286 286 286 285 285 284 284 285 284 284 284 284 283 283 282 282 282 281 280 279 279 279 279 279 279 279 279 279 279
290 284 285 285 286 288 288 292 290 291 290 290 287 289 290 284 283 283 279 279 276 276 274 275 278 281 283 285 281 284 284 287 287 284 283 285 284 286 286 286 285 285 285 285 285 284 284 284 284 284 285 285 286 286 285 285 285 285 285 285 286 285 285 284 284 284 284 284 284 284 283 282 281 280 280 279 279 279 279 279 279 279 279 279 279 279
289 285 283 285 286 287 287 290 284 285 290 288 289 289 286 284 279 280 283 275 278 273 271 274 275 279 283 285 285 288 288 289 288 285 286 287 287 287 287 287 286 286 286 285 285 285 285 284 284 284 284 285 285 285 285 285 284 284 285 285 284 284 284 284 284 284 283 283 283 282 281 281 281 280 280 280 279 279 279 279 279 279 278 279 279 277
287 287 279 284 284 287 284 285 287 289 286 285 285 284 286 284 285 283 282 280 279 269 270 271 275 278 280 287 288 290 290 290 289 289 289 288 288 288 288 288 287 287 286 286 286 285 285 284 283 283 283 284 284 284 284 284 284 284 284 284 285 284 284 284 284 283 283 282 282 281 281 280 280 279 279 279 279 279 279 279 280 279 278 278 277 277
288 286 284 283 283 282 284 286 289 289 291 290 290 287 289 285 283 281 280 281 275 276 275 269 279 280 282 286 291 291 292 291 291 291 291 290 288 288 288 288 288 287 287 287 286 285 284 283 283 282 283 283 284 284 284 284 284 284 284 285 284 284 284 284 283 283 282 282 282 281 280 280 280 280 279 279 279 278 279 280 280 279 278 278 278 278
293 284 282 279 282 286 287 289 288 289 288 288 289 287 290 290 287 281 279 277 278 281 276 273 271 284 284 284 284 286 285 287 290 291 291 289 288 288 289 288 288 288 287 287 286 285 284 283 283 282 283 283 284 284 284 283 284 284 284 284 284 284 284 284 283 282 282 281 281 280 280 280 279 279 279 279 278 278 279 279 279 279 279 279 278 278
294 288 285 282 284 282 285 287 288 287 290 288 287 285 286 287 288 286 283 281 284 277 278 275 276 282 284 282 281 278 278 280 283 286 288 288 289 289 288 287 287 287 286 286 285 284 284 282 282 282 282 283 283 284 284 284 284 284 284 284 284 284 283 283 282 282 281 281 280 280 280 279 279 279 279 278 278 279 279 279 279 279 279 278 278 277
291 288 288 282 280 282 284 287 286 288 288 285 287 289 287 288 289 285 285 281 280 281 282 281 279 283 285 283 283 283 283 284 286 286 288 288 288 289 288 288 287 287 286 285 285 284 283 282 282 282 283 283 283 284 284 284 284 284 284 284 284 283 283 282 282 281 281 280 280 279 279 279 279 279 278 278 278 278 279 279 278 278 278 278 277 277
292 287 288 283 280 278 277 279 281 283 286 286 282 283 288 289 287 286 284 282 281 282 285 283 284 283 282 284 286 284 283 285 286 286 286 288 289 289 288 288 287 287 286 286 285 283 283 283 283 282 282 283 283 284 284 284 284 283 283 283 283 283 282 282 281 281 280 280 280 279 279 279 279 279 279 278 278 279 279 278 278 278 278 277 277 277
289 287 290 289 287 285 286 285 287 288 285 284 283 287 287 289 290 289 288 285 283 282 284 287 288 285 285 287 285 285 281 286 287 284 286 287 288 288 288 289 288 288 287 286 285 285 283 282 282 283 283 283 283 283 284 284 283 283 283 283 283 283 283 282 281 281 280 280 280 279 279 279 279 279 279 278 278 279 279 278 278 278 277 277 277 276
286 288 289 289 288 289 283 284 286 291 287 288 285 285 287 287 288 287 286 285 287 284 283 288 287 287 289 286 287 285 285 286 287 287 287 287 287 288 289 288 289 287 286 285 284 283 283 283 283 282 282 282 283 283 283 283 283 283 283 283 283 282 282 282 281 280 280 280 279 279 279 279 279 279 279 278 278 278 278 278 277 277 277 276 276 275
288 288 289 288 289 290 287 284 286 287 288 287 287 286 285 287 287 286 287 289 287 286 285 288 288 288 290 290 290 287 289 290 290 289 289 289 288 287 287 287 287 287 286 285 285 285 284 283 283 282 282 282 282 282 282 283 282 282 282 282 282 282 282 282 281 280 280 280 279 279 279 279 278 278 278 277 277 277 277 277 277 276 276 276 275 275
290 288 287 288 289 289 289 287 286 288 286 285 285 286 287 287 287 287 288 289 289 288 290 290 287 288 292 292 289 290 290 291 289 287 288 288 288 288 288 287 287 286 286 286 286 286 285 284 283 283 282 282 282 281 282 282 282 283 282 282 282 282 282 282 281 281 280 279 280 279 279 278 278 278 277 276 276 276 276 276 276 275 275 275 275 274
291 288 290 287 286 287 288 287 286 286 286 286 287 286 286 287 287 288 289 290 290 289 290 289 288 288 289 288 291 292 288 287 286 287 288 289 289 288 288 288 288 288 288 288 287 286 285 284 284 283 282 282 281 281 282 282 283 283 282 282 282 282 282 282 281 281 280 280 280 279 279 278 278 277 277 276 276 276 276 275 275 274 275 274 274 273
289 286 287 287 285 286 286 286 286 286 286 286 286 287 286 284 284 287 286 289 288 287 288 287 287 287 290 288 288 288 287 288 288 289 290 289 289 288 288 288 288 288 288 288 287 286 285 284 284 283 282 282 282 282 282 282 282 282 283 283 282 283 282 282 282 281 280 280 280 279 279 278 277 276 276 275 275 274 274 274 274 274 274 273 273 273
288 287 285 286 284 284 285 287 285 285 285 283 285 287 287 287 288 289 289 290 290 291 287 285 287 292 293 289 288 286 288 288 289 289 289 289 289 289 289 289 290 289 290 289 288 287 286 286 285 285 284 283 282 282 282 283 282 282 283 283 283 282 282 282 282 282 281 281 280 279 279 278 276 275 274 274 274 274 273 273 273 273 273 272 273 272
287 287 286 287 283 284 285 285 286 283 277 281 290 293 291 288 288 286 287 288 289 291 290 292 292 290 288 287 289 288 288 289 290 291 292 291 289 288 289 289 289 290 290 289 289 288 288 287 287 286 285 284 284 283 283 282 283 283 283 283 282 282 282 282 282 282 281 281 280 279 278 277 275 274 274 273 273 273 272 272 273 273 273 272 272 272
287 287 286 287 284 282 283 285 282 278 280 288 285 287 292 294 291 289 289 290 290 291 291 291 290 287 290 290 291 291 291 292 291 292 291 291 291 290 290 289 289 289 289 289 288 288 287 287 286 285 284 283 283 282 281 281 282 281 281 282 282 283 283 282 282 282 281 280 279 278 277 276 275 274 273 273 273 272 272 272 272 272 272 272 272 272
287 286 287 285 285 283 282 283 277 279 287 286 286 284 284 288 290 289 287 290 291 291 291 290 292 290 290 290 290 292 292 291 289 288 289 289 291 292 290 290 290 289 288 288 288 288 287 287 286 286 286 285 283 282 282 282 282 281 282 282 283 283 282 282 282 281 281 280 278 277 276 275 275 274 273 273 272 271 272 271 271 271 272 272 272 272
290 288 287 284 287 280 282 282 283 288 286 288 286 283 286 286 285 286 283 287 291 292 291 290 291 289 289 289 290 287 287 287 290 291 286 287 289 289 290 291 290 289 289 288 288 288 287 287 286 286 285 285 284 283 282 282 282 282 281 281 282 282 282 281 281 281 280 280 278 277 276 276 275 274 273 272 272 271 271 271 270 271 271 270 272 272
291 287 288 285 283 286 282 280 280 280 278 284 288 283 287 289 291 291 289 287 290 290 292 291 289 288 289 289 287 286 289 288 287 289 290 287 286 287 286 286 286 287 287 286 285 285 285 285 284 284 285 284 284 284 283 281 281 281 280 281 281 281 281 280 281 281 280 279 278 277 276 276 275 274 273 272 272 271 272 272 272 272 272 272 271 271
287 288 288 287 285 283 282 280 280 278 282 287 283 284 286 284 289 287 285 284 289 288 289 290 288 289 289 289 285 288 288 286 287 290 290 288 285 285 285 283 283 284 284 285 285 284 283 284 284 283 283 283 282 282 281 281 281 280 280 280 280 280 280 280 281 280 280 279 279 277 277 276 275 275 274 273 273 272 272 272 273 273 272 272 272 271
285 286 286 284 284 285 283 281 279 283 283 283 280 282 282 286 291 288 277 280 289 288 289 289 289 289 289 289 287 288 288 286 288 289 286 287 285 284 284 283 282 282 282 282 283 283 283 282 282 281 282 282 283 281 280 280 280 280 280 279 279 279 279 280 280 281 280 279 278 277 276 275 275 275 274 273 273 273 273 273 272 272 271 271 271 270
282 283 285 282 284 284 285 282 284 284 286 284 281 280 283 288 290 282 278 286 287 289 289 291 290 290 289 287 288 287 289 290 289 285 282 280 281 281 280 281 282 283 283 282 283 283 283 283 284 284 283 283 280 279 278 279 279 278 278 277 277 278 279 280 279 278 278 278 276 276 275 275 275 275 274 274 274 273 273 273 273 272 271 270 270 269
282 283 282 285 283 283 284 282 282 285 286 283 281 285 285 287 279 280 284 280 281 280 284 289 290 288 287 287 288 289 286 282 282 281 280 282 283 281 279 279 279 279 278 279 280 281 282 281 280 279 279 276 277 277 278 278 278 277 276 275 277 278 280 277 277 277 276 276 276 275 275 274 274 275 274 273 272 272 271 270 271 271 270 270 269 268
282 281 279 281 284 284 283 282 280 277 286 284 284 283 284 284 283 283 281 280 282 283 285 285 288 286 288 286 285 283 281 280 281 281 280 279 280 280 280 280 281 281 280 279 279 279 280 280 279 278 278 274 273 276 277 278 277 275 275 276 278 278 276 277 276 276 276 276 275 274 274 274 274 274 273 272 272 272 271 269 269 268 268 268 267 267
287 282 281 283 287 280 281 278 280 286 284 286 288 284 285 284 285 284 286 283 283 283 285 285 284 284 285 286 283 281 280 280 279 279 279 278 278 279 278 279 279 279 279 279 279 279 276 279 277 277 275 272 271 273 276 278 277 275 275 277 279 275 275 275 275 275 275 275 275 274 274 273 273 273 273 272 272 271 270 268 268 267 267 267 267 266
288 284 284 282 288 285 282 283 285 285 284 285 284 283 287 286 285 286 287 286 285 284 282 285 285 283 284 285 283 281 279 280 280 280 280 279 278 279 278 278 279 279 279 279 277 275 275 277 275 274 274 272 271 271 275 277 278 275 276 279 275 276 275 274 273 274 274 274 274 274 274 273 273 272 272 271 271 270 270 267 266 266 264 265 265 265
282 283 284 284 283 284 284 285 284 283 284 284 284 284 284 283 284 285 286 285 285 285 284 286 284 284 282 283 283 280 281 279 279 279 278 279 279 278 278 277 276 276 275 275 273 273 273 272 271 272 274 273 270 272 272 275 277 276 278 275 276 275 274 273 273 273 274 273 273 273 272 271 271 271 270 270 270 271 271 269 266 267 265 264 265 265
282 282 284 283 284 285 282 283 284 285 285 285 285 284 284 284 285 284 285 286 284 282 282 282 285 283 282 281 284 283 280 279 279 279 278 278 278 277 277 278 278 277 276 276 275 273 272 271 272 272 272 275 272 271 272 272 275 278 276 272 273 273 273 272 273 274 273 273 272 271 270 271 271 269 268 268 268 268 268 268 267 267 265 264 265 265
281 284 283 282 283 284 282 283 282 281 283 285 285 285 284 284 284 284 284 284 284 282 283 281 280 279 280 281 281 281 280 279 279 278 277 278 278 277 278 277 277 275 275 275 274 273 272 274 275 274 273 275 275 272 272 272 274 275 271 268 270 269 271 272 273 274 273 272 271 270 270 271 268 268 268 267 267 267 266 266 267 267 267 266 266 266
283 286 279 282 280 280 279 279 279 282 282 283 283 284 285 285 284 284 282 281 281 282 279 278 279 280 281 282 280 281 279 278 280 279 279 278 278 277 278 278 276 277 275 274 273 273 276 275 275 275 273 275 274 272 271 272 273 272 272 269 266 269 271 272 271 269 268 268 268 269 268 269 269 269 268 267 266 268 269 268 267 268 269 269 269 269
282 280 279 280 275 277 280 280 281 281 278 282 282 284 285 284 284 283 280 280 280 281 279 280 278 279 279 280 280 281 281 279 278 278 279 279 279 279 277 276 275 274 274 274 274 274 275 274 275 274 273 274 271 271 271 272 272 269 269 268 266 268 271 271 269 268 269 268 269 268 267 267 267 267 267 267 266 266 266 267 271 270 269 269 270 273
282 282 281 279 280 280 283 281 284 284 284 285 285 285 284 283 282 282 281 282 281 281 281 280 278 277 278 278 278 281 280 280 278 278 278 277 279 278 278 277 276 274 274 272 272 271 272 272 271 269 270 273 270 271 272 271 269 268 267 269 268 269 270 269 270 269 269 268 269 269 268 267 267 266 266 266 266 265 266 265 267 273 274 273 271 272
Wind_Speed
2 4 5 7 10 11 7 9 10 6 6 3 3 3 4 5 5 3 3 3 2 1 7 9 9 8 9 9 9 5 5 7 7 7 8 8 8 9 8 8 7 7 6 4 4 4 4 3 2 2 3 4 4 5 7 7 7 8 8 8 9 7 6 6 7 6 6 9 8 7 7 8 6 6 7 7 6 7 7 7 7 7 6 7 7 6
3 4 8 11 11 9 11 8 5 1 1 3 2 3 5 2 6 5 1 0 0 4 3 5 6 9 12 10 9 4 5 11 13 12 10 10 10 10 10 8 8 6 2 3 3 3 3 3 2 3 3 4 7 4 5 6 7 7 7 6 7 5 4 4 3 5 5 4 5 8 6 8 6 6 6 7 7 7 7 8 8 8 8 8 8 7
4 10 11 12 2 2 1 4 5 7 5 2 4 4 2 7 4 7 3 2 1 2 8 4 5 9 9 9 8 7 10 9 11 14 15 14 12 10 9 8 8 6 6 4 4 3 4 3 3 3 3 2 3 5 5 4 6 6 5 5 5 5 5 5 4 5 7 7 6 6 6 7 9 6 6 7 6 6 7 8 8 8 8 8 8 7
4 6 15 8 4 4 4 3 4 1 2 5 1 2 7 3 2 6 2 1 0 2 2 1 5 8 6 7 11 13 9 6 5 9 10 11 14 14 15 15 13 10 10 9 7 6 4 4 4 3 4 4 3 4 5 5 6 5 5 5 6 6 5 5 5 7 8 9 10 9 9 7 8 9 7 9 8 8 9 10 8 7 7 7 8 7
12 4 2 6 8 9 6 3 4 4 7 3 6 5 4 3 5 6 5 2 3 2 1 5 9 9 7 13 11 7 2 3 4 3 6 5 5 5 4 5 9 14 12 9 7 5 5 5 5 5 5 4 4 3 5 6 5 5 6 6 6 5 6 6 7 9 11 12 11 10 11 10 11 8 7 8 8 6 6 7 8 7 5 6 8 7
10 6 3 7 5 5 5 3 6 7 7 4 5 8 8 6 6 3 1 1 4 3 1 1 6 5 4 6 12 7 2 3 2 3 6 6 6 8 10 10 6 5 7 11 11 9 7 6 4 4 5 5 4 5 4 4 4 5 7 7 6 6 6 8 8 9 7 10 13 11 10 8 8 7 5 7 9 6 6 7 4 6 6 6 8 7
7 3 4 6 6 5 5 5 4 8 8 3 6 8 7 6 4 2 1 2 3 5 2 1 7 10 2 4 6 5 4 8 4 4 5 5 7 8 9 9 10 10 7 4 5 7 8 6 6 5 6 5 5 4 3 5 5 6 7 7 7 7 6 6 7 6 7 8 6 8 10 10 10 10 3 3 4 7 5 6 7 6 6 6 8 7
3 6 4 2 4 6 5 5 6 9 6 5 2 4 5 4 4 4 4 7 6 0 4 1 2 4 14 6 8 7 6 7 6 8 6 7 6 8 7 8 9 9 9 10 10 9 7 7 8 8 6 5 5 5 5 6 6 7 7 8 8 6 6 5 5 5 3 8 7 8 8 8 8 10 9 7 6 5 6 8 7 6 6 6 6 7
6 5 7 6 4 4 8 7 3 8 6 3 0 6 4 5 4 3 3 2 1 2 8 1 1 2 9 4 3 2 2 9 14 12 11 10 8 7 7 8 9 9 10 11 11 11 10 10 8 6 7 4 6 6 6 6 6 6 6 7 8 8 6 5 5 6 4 5 9 10 10 9 6 10 8 6 6 6 6 9 6 7 6 6 6 6
1 5 9 11 9 9 5 0 5 10 5 1 5 7 7 7 6 4 3 2 2 1 9 7 5 4 17 5 3 3 2 10 14 13 8 11 12 10 9 7 7 7 7 7 9 10 8 7 7 5 4 5 5 5 4 5 6 6 6 8 9 7 5 5 6 6 6 6 8 10 10 14 10 9 7 6 7 6 5 9 7 6 6 6 6 6
1 3 3 4 7 5 5 1 2 5 3 7 4 8 6 8 4 3 6 2 3 7 8 10 10 7 11 2 8 6 9 8 4 1 3 7 7 7 6 9 9 9 8 8 7 7 7 6 6 5 6 6 5 5 6 6 7 7 7 8 10 7 6 6 7 8 8 6 7 10 11 14 13 11 10 10 7 7 6 8 7 6 6 5 6 6
1 2 1 1 3 4 3 4 5 1 4 8 2 4 5 2 6 3 4 4 1 9 4 11 12 11 12 5 5 7 4 3 3 4 5 9 13 13 11 10 10 10 9 9 9 8 7 6 6 6 7 7 7 6 7 7 6 6 7 7 9 6 6 6 7 8 8 7 6 8 10 12 12 12 10 11 11 9 9 9 9 6 6 6 6 5
3 3 2 2 3 9 3 6 4 4 1 6 7 7 7 3 5 3 3 3 6 9 1 1 3 2 18 11 4 4 10 6 6 6 6 10 11 10 9 11 10 9 9 10 10 9 9 10 11 10 9 7 8 9 9 8 7 6 7 8 10 8 7 8 8 9 8 7 7 9 9 9 9 8 9 9 10 8 9 8 9 8 8 6 6 5
7 1 1 3 2 5 8 10 3 1 5 6 9 8 7 1 2 6 4 2 6 5 5 0 1 8 2 8 12 20 16 2 3 6 4 7 11 13 12 10 10 10 11 10 10 10 10 11 10 10 10 8 8 9 9 8 8 7 7 7 9 10 8 7 8 9 9 7 7 7 8 8 8 7 7 7 9 7 7 7 8 8 8 7 7 7
4 4 8 8 5 4 9 12 16 8 11 12 5 13 11 9 6 4 7 8 7 5 2 4 4 8 6 6 1 4 5 6 4 4 1 1 4 6 6 7 8 9 8 9 10 11 11 11 11 10 10 9 8 8 9 8 8 7 7 8 8 8 7 8 9 8 10 8 6 5 5 6 6 7 7 6 6 7 7 5 7 6 5 7 6 7
12 7 5 8 1 7 12 2 5 6 2 1 1 5 4 10 7 9 4 3 1 1 1 2 7 5 6 1 4 2 3 1 3 1 4 4 5 8 8 10 11 10 10 9 9 9 9 9 9 8 8 8 8 8 7 8 8 8 8 7 8 9 9 8 8 8 9 8 6 6 7 6 6 6 6 6 5 5 5 6 7 6 5 5 5 4
2 5 1 4 4 8 7 3 3 6 8 5 5 8 8 2 5 1 2 0 1 2 10 3 7 7 7 8 5 1 0 2 1 1 3 5 5 6 8 8 8 8 9 9 10 10 10 7 8 8 8 8 8 8 9 9 9 9 8 8 8 7 7 8 8 8 7 8 7 6 6 7 6 7 8 8 7 7 5 5 6 6 5 5 4 5
8 5 1 4 5 1 0 0 2 4 4 7 5 8 3 2 4 4 5 2 1 5 7 4 11 6 1 12 1 1 2 5 3 2 1 3 5 7 8 8 10 11 10 8 7 7 9 9 9 8 7 8 9 8 8 8 7 7 7 8 9 7 9 7 8 8 8 9 9 7 7 6 7 7 6 7 8 7 7 6 6 6 7 6 5 5
4 5 1 1 1 3 3 1 3 2 3 6 7 4 8 4 3 2 3 6 3 6 5 5 5 9 10 10 2 3 6 9 8 4 3 6 7 10 8 8 6 5 6 9 10 9 10 11 10 10 10 8 7 7 7 6 7 6 5 6 8 11 9 8 6 6 5 6 6 6 7 7 6 5 6 5 6 6 7 7 6 6 7 6 6 7
1 6 2 1 2 1 1 4 8 4 1 2 3 3 1 3 1 6 8 2 4 5 1 8 2 10 7 6 11 10 13 12 9 6 11 13 13 11 10 10 11 11 11 11 11 10 10 10 10 11 11 11 10 8 7 7 6 7 7 7 6 5 7 8 8 8 8 6 6 6 5 5 5 6 7 7 8 8 8 7 7 7 6 7 6 6
3 2 4 1 2 2 3 4 9 13 10 2 3 4 0 0 1 3 1 4 5 4 6 3 9 5 7 8 13 13 14 14 14 16 13 12 12 11 11 12 12 12 11 11 11 10 10 10 9 9 8 8 6 6 6 8 9 8 7 8 8 11 9 9 9 9 8 8 7 8 8 8 7 7 7 7 6 7 7 7 6 7 6 5 5 5
2 3 8 3 2 5 6 5 5 5 8 11 13 13 14 9 5 5 8 1 2 2 6 3 14 4 5 3 10 11 13 14 14 15 14 13 12 12 11 10 10 11 10 10 10 8 9 8 8 7 6 6 8 8 9 9 8 9 10 10 9 8 9 11 9 9 8 7 8 9 8 8 6 8 7 8 7 7 7 7 7 6 6 6 6 6
6 3 7 4 7 10 5 0 1 1 2 3 4 5 8 8 6 5 7 5 0 6 4 2 1 13 3 2 4 5 3 6 9 11 13 8 11 12 11 10 9 9 10 10 9 8 8 8 8 9 11 11 12 11 10 9 10 11 10 10 9 11 10 9 9 7 8 8 9 9 8 8 8 8 9 9 8 8 8 7 7 6 8 7 6 5
7 3 4 0 1 3 2 2 1 1 1 2 3 2 5 13 12 8 2 5 8 2 2 1 6 7 3 1 3 4 4 5 3 5 7 6 8 10 10 8 9 8 7 5 6 6 7 7 7 8 10 11 11 11 12 11 10 10 10 10 10 11 11 9 8 9 9 8 8 8 8 8 8 9 9 9 8 9 8 7 7 6 6 6 6 6
7 4 7 4 0 2 2 2 1 1 1 4 7 9 6 2 4 2 3 1 1 9 8 8 16 8 2 2 2 1 1 4 6 6 7 8 7 10 10 9 8 7 6 7 8 9 8 9 12 13 12 12 12 11 11 11 12 11 11 10 11 10 9 8 8 9 9 9 10 9 9 9 9 10 10 9 8 9 8 7 7 6 7 7 6 6
5 4 10 10 13 10 9 13 14 12 13 4 0 4 7 12 9 5 8 4 9 2 15 9 16 4 5 3 2 1 1 4 4 4 5 7 8 11 8 8 8 8 10 9 8 9 13 14 10 9 10 11 11 13 12 11 11 10 10 10 8 10 9 9 8 9 9 9 11 10 10 10 10 11 11 10 9 9 9 8 8 7 6 7 8 7
4 3 10 14 14 15 9 1 3 7 6 7 7 13 13 12 12 10 6 6 15 3 10 18 13 7 6 5 5 4 1 6 7 4 9 10 9 8 6 10 11 11 10 11 11 10 6 6 12 14 12 12 11 11 11 11 11 9 9 9 9 9 10 9 9 9 10 10 11 10 11 11 11 11 10 9 8 8 8 8 8 8 8 7 7 8
2 6 12 12 13 12 4 2 5 13 11 11 10 12 13 14 15 15 14 17 7 2 18 10 5 12 18 6 7 5 6 6 6 6 7 6 7 10 10 6 5 6 6 6 6 10 14 14 11 11 12 11 12 10 9 8 10 11 11 12 10 9 9 9 10 11 11 11 11 11 12 11 10 9 9 8 7 8 7 7 7 6 5 6 7 7
6 9 7 6 16 12 4 4 6 4 7 8 13 14 14 17 16 21 22 16 10 14 21 7 13 16 17 11 12 10 11 13 14 16 12 8 6 5 7 10 11 10 8 10 13 12 11 11 12 13 12 12 9 11 11 9 9 8 8 8 9 9 10 10 10 11 11 11 12 12 10 9 8 7 7 7 7 7 7 7 7 6 6 6 5 5
4 10 5 8 15 12 10 6 5 8 3 1 8 14 17 19 21 21 19 18 17 16 18 16 8 15 15 10 8 9 13 10 2 2 4 7 10 11 11 10 10 9 10 13 13 12 11 12 11 12 11 10 12 12 11 11 11 12 12 11 10 10 9 10 11 12 11 12 12 10 9 9 8 8 8 8 9 8 8 7 7 7 7 7 6 5
8 7 10 6 7 14 10 5 6 6 5 9 11 13 17 15 14 17 18 19 17 18 24 16 14 22 7 4 9 8 4 5 3 4 7 8 8 9 10 10 10 11 13 12 9 9 10 9 9 8 10 12 12 13 13 13 12 9 9 10 11 12 11 11 11 11 12 12 10 9 9 9 9 9 10 9 8 8 9 8 7 7 7 7 6 7
5 3 1 6 7 13 5 10 9 8 6 11 17 21 14 7 7 11 17 16 13 21 18 11 17 21 9 9 1 1 5 7 9 10 7 6 7 7 9 10 10 10 10 10 10 9 8 9 10 11 13 13 13 12 11 11 10 10 12 12 12 12 10 11 11 12 12 12 11 10 11 10 9 9 9 9 10 9 7 7 7 7 7 7 7 7
8 6 6 7 8 12 3 13 10 6 3 7 24 26 12 15 18 17 16 16 18 17 13 15 19 21 13 6 7 4 7 7 7 9 8 6 8 10 10 10 10 10 11 10 10 10 11 13 14 14 13 11 12 12 13 12 10 13 13 13 12 9 11 13 13 13 12 11 12 12 11 10 10 10 9 9 9 8 8 8 8 8 8 9 7 6
5 8 7 6 7 5 6 9 8 7 9 18 3 12 20 21 24 20 18 18 17 14 17 19 18 9 5 10 12 10 11 12 12 11 9 12 10 7 5 6 9 10 7 6 8 11 13 9 8 10 12 13 13 13 10 10 14 13 11 11 9 12 13 13 12 12 12 11 12 12 11 10 9 9 9 8 8 8 8 9 10 9 7 7 6 8
10 8 7 5 4 4 6 9 7 14 18 5 2 1 9 19 18 20 21 19 20 20 20 18 14 6 11 13 15 14 13 10 8 13 8 6 9 10 11 10 7 5 7 9 9 8 8 9 9 7 6 8 9 7 8 9 9 6 7 9 11 12 12 12 12 11 11 12 11 10 10 11 10 9 9 9 9 9 9 10 8 9 9 9 10 10
10 12 5 3 3 2 5 9 7 12 4 3 5 2 0 3 8 12 16 20 19 20 21 22 22 10 10 10 7 10 12 8 5 3 4 5 7 9 7 7 8 8 9 10 11 11 10 10 12 12 12 6 6 8 9 11 9 9 10 9 11 11 11 11 11 11 10 11 11 11 11 11 11 11 10 10 9 9 11 10 11 11 9 8 7 6
15 9 8 5 7 7 5 10 13 6 12 10 8 3 8 8 8 12 11 17 19 19 18 18 17 7 6 7 8 5 3 2 0 4 1 5 5 3 4 6 8 11 11 8 8 7 6 5 5 5 4 6 8 9 10 7 9 9 8 9 10 10 9 10 11 13 13 12 11 12 12 13 13 12 11 10 11 11 11 11 10 9 7 8 9 9
8 13 8 10 6 10 8 6 2 4 13 19 7 1 5 6 9 13 11 15 9 13 15 15 13 13 12 9 7 5 5 5 3 9 5 3 2 4 2 3 4 5 5 4 3 3 4 4 4 5 7 7 8 8 6 7 9 9 9 10 9 10 10 11 14 14 12 12 12 13 13 13 12 12 12 11 13 13 11 9 7 9 8 11 10 11
3 2 5 15 6 7 8 9 9 10 13 7 3 8 7 5 8 6 5 16 9 9 11 14 12 15 16 12 7 8 7 6 11 10 8 6 5 5 7 3 3 3 4 5 7 7 6 6 6 6 5 6 6 6 6 8 10 10 10 10 10 11 12 14 14 12 13 13 12 11 11 11 11 11 12 13 13 12 12 12 12 9 8 9 8 8
8 6 4 9 10 10 11 9 10 6 9 2 3 1 4 6 10 8 4 13 4 12 12 13 16 15 10 11 12 10 11 10 10 10 5 9 7 6 6 8 5 5 4 3 1 3 6 6 7 4 5 6 7 6 8 8 9 10 10 10 8 10 13 14 14 12 10 7 8 9 9 9 11 11 12 13 11 10 11 8 7 8 9 8 7 7
6 5 9 14 12 12 13 9 5 6 4 3 4 3 5 7 8 8 19 5 6 13 13 14 14 13 13 12 11 10 11 6 6 4 6 6 7 4 2 2 4 5 7 5 5 4 7 5 7 9 9 6 5 7 7 8 8 9 7 7 8 12 15 11 6 6 7 7 7 8 10 9 11 13 12 12 12 11 9 8 8 7 8 8 6 6
7 7 2 6 12 12 12 12 13 7 5 5 0 12 8 9 8 17 2 1 2 3 1 5 8 9 13 15 12 9 5 3 6 7 8 6 7 5 4 5 5 4 2 2 4 4 5 4 3 3 3 3 7 7 8 9 9 7 6 7 10 15 9 5 6 6 6 8 9 9 10 11 10 11 11 9 8 9 9 7 7 7 8 6 7 9
14 10 10 12 7 5 4 11 6 11 5 11 11 2 5 8 5 4 3 4 4 3 7 3 6 7 10 7 3 7 7 5 7 8 7 7 8 8 8 8 8 7 7 4 2 1 4 5 4 4 3 2 4 6 6 8 7 6 6 8 14 9 5 6 6 7 8 8 9 9 10 10 11 11 9 9 10 11 10 8 8 8 8 8 8 9
9 8 5 9 9 9 10 11 9 5 6 11 19 14 7 4 1 3 6 3 2 2 3 5 1 4 4 9 9 6 6 8 4 5 5 4 4 5 4 4 4 4 3 2 2 5 4 4 2 2 1 2 3 4 6 8 8 6 7 13 9 4 5 5 6 7 8 9 10 10 10 10 10 10 9 10 10 10 10 9 9 8 8 8 8 8
8 9 2 10 9 10 6 4 1 2 4 5 2 4 5 2 1 3 7 6 5 1 0 1 4 4 6 10 9 11 6 5 10 9 10 8 6 7 7 7 8 8 7 7 4 3 4 5 5 3 1 1 3 3 5 5 9 8 10 10 5 6 7 7 7 8 9 10 9 10 9 8 9 10 9 10 11 11 10 8 8 9 7 8 8 8
4 2 1 5 1 2 2 2 1 1 3 2 4 2 4 3 0 3 8 5 3 4 7 7 5 7 6 7 12 3 8 9 8 7 4 7 7 6 4 3 2 1 2 2 3 4 4 3 3 4 5 3 3 4 4 5 7 10 12 4 7 7 8 8 8 8 10 9 8 9 8 9 8 9 9 9 9 11 11 12 11 11 9 9 10 10
2 0 1 3 2 5 6 3 3 4 3 2 3 3 4 3 2 3 3 4 4 4 4 1 8 8 9 7 9 10 8 10 10 8 6 7 7 7 7 8 7 6 7 6 4 6 4 5 4 4 5 6 5 5 5 6 7 10 2 4 4 6 6 8 9 9 7 9 8 6 8 10 9 8 7 8 7 8 8 8 9 10 10 11 11 11
2 4 2 2 3 6 1 5 2 4 2 2 3 4 2 2 2 3 2 1 4 6 4 4 5 5 5 6 6 9 10 9 11 9 8 9 9 9 8 7 6 4 3 3 5 5 4 5 6 6 6 8 7 6 6 7 9 9 3 1 4 5 6 7 8 9 8 8 7 7 8 9 10 10 8 9 9 9 8 8 10 12 13 14 15 14
3 7 4 5 5 1 3 1 1 5 3 2 2 2 3 8 7 5 4 3 5 7 3 3 1 7 9 9 7 8 9 8 9 12 11 9 7 6 8 7 6 6 6 5 5 7 9 8 8 8 7 9 6 6 7 9 9 5 5 4 4 6 6 7 6 5 5 5 6 7 7 8 8 9 9 9 9 11 12 14 13 14 14 13 11 13
6 7 2 5 3 4 10 10 10 8 4 6 6 8 7 6 7 8 4 4 6 7 5 5 2 1 2 5 9 9 11 10 7 8 9 9 9 8 6 5 5 6 7 6 7 8 7 7 9 8 8 8 5 6 7 8 6 4 4 4 5 6 6 6 5 5 6 6 7 6 7 7 7 8 8 9 10 10 9 9 10 10 10 10 9 15
8 6 7 6 8 9 3 8 8 3 5 11 13 9 7 6 7 9 8 9 7 7 8 9 6 2 3 3 4 9 9 10 10 7 7 6 8 8 8 9 8 6 6 6 6 6 7 7 5 5 6 7 5 6 7 6 4 4 5 5 5 6 5 5 6 6 6 6 8 9 8 7 8 8 8 8 7 7 8 7 8 15 18 13 7 11
Wind_Direction
112 144 179 194 213 207 199 192 198 197 162 116 102 116 200 193 276 284 276 258 201 134 228 225 231 239 257 248 256 223 205 223 231 218 213 200 193 191 190 187 180 180 179 197 181 161 159 165 176 157 134 134 124 127 130 129 127 124 127 136 131 137 138 131 132 121 114 114 104 84 85 92 84 80 76 65 58 61 57 56 55 55 56 58 64 65
79 201 235 220 214 191 199 202 215 105 129 161 171 168 264 174 241 239 204 302 300 173 285 249 245 251 250 261 259 248 169 226 216 215 217 203 199 196 186 180 181 174 137 141 138 156 134 152 173 149 138 145 135 137 133 135 132 133 132 131 125 125 118 101 98 115 97 77 104 121 113 108 92 84 76 79 64 62 61 56 56 57 56 59 60 60
199 211 231 229 204 171 196 182 191 198 218 214 202 231 256 260 249 290 269 287 265 130 259 276 252 252 256 257 260 225 214 227 216 205 206 195 194 191 187 177 165 162 170 175 177 171 163 159 159 149 146 143 135 135 123 123 119 115 108 106 115 111 106 98 101 102 105 103 93 98 108 102 99 66 74 80 73 72 67 61 56 56 58 62 62 60
240 277 247 230 132 159 228 160 156 201 240 217 195 139 225 238 162 283 293 336 302 159 264 335 298 273 272 264 263 255 226 254 238 212 212 196 189 186 189 182 171 168 167 178 178 175 173 164 157 156 151 151 139 129 117 116 121 121 125 126 116 111 103 104 97 101 95 95 93 85 95 87 91 106 93 84 75 72 72 64 57 53 58 61 70 65
204 210 254 162 171 174 206 175 142 170 231 244 200 197 216 213 237 189 250 317 331 331 66 308 298 279 227 251 258 259 349 272 272 266 227 213 199 176 128 138 172 170 168 167 172 172 169 165 172 174 161 153 151 151 139 138 141 132 130 124 117 113 113 109 117 116 119 108 96 99 91 95 93 80 90 91 68 61 72 76 56 50 53 66 73 71
253 264 92 133 167 171 175 211 202 166 222 261 225 193 203 200 216 273 3 21 13 332 329 115 317 290 278 258 249 280 324 261 260 212 224 191 164 154 174 176 165 169 174 166 171 172 172 170 173 179 169 162 160 160 148 140 129 127 122 117 114 111 116 122 123 128 134 129 132 129 120 114 106 104 104 109 118 98 81 85 88 64 55 66 70 67
215 202 125 161 159 177 179 199 231 164 210 194 267 196 200 183 188 171 168 86 287 252 298 17 208 281 312 247 239 256 240 252 279 237 227 195 188 183 182 173 173 167 164 161 154 156 164 178 172 182 179 165 159 162 142 128 132 128 126 123 126 127 123 129 134 138 138 123 115 127 131 135 133 124 79 91 91 110 102 94 82 76 60 58 77 71
154 208 176 92 130 164 185 216 242 169 173 235 247 159 154 152 175 208 166 185 232 253 290 67 127 276 290 236 229 217 211 248 261 242 223 215 201 197 183 175 171 170 166 164 169 169 173 175 173 177 176 163 163 156 141 137 143 143 142 139 136 135 136 139 136 131 144 130 128 118 113 118 125 126 137 135 122 109 115 97 88 85 72 64 65 81
157 189 182 197 180 172 197 207 179 159 156 219 187 135 149 165 180 124 145 179 234 23 282 287 344 335 252 278 334 94 261 259 252 235 215 207 207 197 181 178 175 172 170 165 166 174 175 177 179 176 171 165 148 156 153 152 151 141 142 138 138 143 144 140 141 134 127 133 134 130 126 114 114 120 128 127 117 114 116 100 93 89 87 79 70 72
318 174 199 181 175 214 215 295 164 158 193 244 133 88 80 75 64 96 93 97 330 52 251 182 171 210 277 196 189 347 206 256 242 242 206 205 197 190 182 178 170 165 167 173 168 168 169 171 172 180 164 155 160 150 141 137 138 142 145 148 144 144 145 148 138 131 128 136 134 130 134 130 133 129 126 126 125 121 121 106 102 97 91 88 81 70
243 295 189 120 197 195 131 85 160 196 167 132 84 69 31 40 32 22 62 84 38 260 244 178 196 157 277 227 185 157 219 215 273 328 207 190 188 190 187 174 171 167 165 168 165 168 166 166 161 164 167 160 144 144 144 147 153 157 153 154 148 151 146 150 143 137 137 140 143 136 143 139 141 142 139 134 128 128 122 115 112 107 101 90 87 83
358 359 136 264 97 104 107 84 13 94 143 133 95 122 62 341 16 33 343 38 166 263 156 183 186 182 219 289 276 251 269 219 191 236 215 198 195 188 183 179 173 165 165 164 161 163 155 152 164 168 170 167 161 153 156 159 157 164 151 154 144 148 155 153 144 133 136 139 141 140 144 143 147 148 148 144 143 147 136 132 125 120 106 93 88 86
286 194 259 339 214 138 119 88 6 25 26 84 96 89 135 248 35 306 30 254 199 241 290 342 140 6 241 238 253 280 273 257 215 227 215 197 202 191 179 175 168 164 161 166 169 163 167 170 172 177 176 173 169 170 166 164 163 161 151 159 151 159 163 158 149 142 142 143 150 151 147 144 146 146 143 142 140 149 140 139 133 133 124 127 112 114
270 291 345 236 352 240 146 160 153 75 220 128 143 150 139 156 207 248 265 266 299 299 269 276 172 251 312 288 239 248 254 283 258 259 238 191 190 184 178 170 164 168 169 171 169 172 174 175 178 179 176 178 177 172 169 166 164 165 161 167 163 162 164 157 152 148 146 153 155 154 150 147 147 146 145 147 144 148 139 140 139 142 144 144 142 141
237 313 238 150 235 172 185 190 184 169 163 198 148 159 186 161 160 224 192 215 223 222 291 271 128 233 131 243 289 260 287 288 282 271 256 172 168 159 152 151 153 163 177 172 174 178 180 181 179 180 178 179 181 175 170 169 169 166 169 169 169 158 165 158 158 154 153 154 154 149 145 144 141 144 141 139 138 139 136 133 130 130 133 135 147 141
216 234 267 212 316 163 186 220 106 86 99 244 174 50 107 215 150 225 189 174 235 294 305 206 209 191 188 243 282 277 296 352 351 17 100 99 114 133 144 163 173 178 176 175 175 182 185 181 179 177 182 182 181 179 173 174 173 174 176 173 171 166 164 164 159 161 156 154 150 150 149 151 142 133 125 120 116 118 126 136 136 136 134 133 129 127
54 265 291 345 53 174 190 122 184 149 198 205 108 200 213 114 126 85 21 71 118 42 250 152 281 279 302 292 241 255 330 292 24 34 99 133 142 149 167 174 180 180 177 181 184 184 182 179 187 184 181 181 182 183 184 182 179 176 172 171 168 168 164 163 165 158 157 153 152 159 153 147 142 142 146 147 145 138 130 128 131 132 134 124 124 128
154 235 305 103 204 321 205 210 101 20 143 99 181 219 92 97 108 151 225 339 91 220 271 153 230 271 104 271 352 66 197 253 265 207 180 150 153 178 186 185 186 187 188 186 186 185 183 184 184 185 187 186 188 184 181 183 179 178 173 169 164 166 168 172 161 161 161 159 157 157 155 152 150 148 141 140 141 137 133 132 131 132 135 145 143 134
125 287 281 319 106 297 349 86 10 357 24 155 194 203 138 237 225 281 99 242 191 242 281 267 249 254 191 234 72 234 214 230 228 201 186 196 192 198 191 194 192 174 170 185 191 187 188 187 188 186 187 188 186 183 181 174 172 171 171 174 171 169 171 163 158 152 154 157 154 156 155 152 143 137 132 128 129 133 138 145 150 151 149 142 143 139
97 193 290 337 128 301 28 133 197 209 332 33 78 124 50 102 175 142 201 178 120 251 77 285 71 252 188 215 184 205 209 211 197 190 216 207 196 191 192 187 186 190 193 190 192 193 189 189 188 185 183 183 183 180 179 174 169 173 172 169 172 165 156 155 158 159 160 159 149 146 137 137 140 139 142 144 145 150 153 157 154 151 155 159 143 141
216 141 249 230 303 105 187 184 201 177 177 149 125 191 167 24 257 114 350 154 177 183 202 270 295 264 248 206 183 202 202 204 189 201 209 204 203 199 192 187 190 194 192 193 193 190 186 185 185 183 179 176 170 172 171 175 179 177 171 175 174 169 169 169 166 161 161 152 150 149 153 150 145 144 140 143 150 149 155 157 157 160 155 137 146 144
176 189 194 135 156 216 240 239 212 193 197 186 175 191 183 149 146 171 248 53 143 145 237 143 260 244 261 167 205 201 204 199 201 197 202 204 193 194 198 199 193 191 198 193 191 185 181 179 177 172 167 167 170 179 181 181 175 178 181 181 174 173 174 170 171 166 157 156 153 157 157 154 148 148 149 151 156 156 162 165 164 157 150 153 151 152
160 120 105 187 203 198 213 242 312 230 151 187 176 216 185 197 173 173 207 229 359 239 114 180 319 273 229 203 234 239 253 227 209 197 208 193 185 196 202 198 194 196 190 189 183 180 180 178 177 176 176 178 182 183 181 180 184 185 183 177 180 176 183 176 167 158 154 155 158 159 156 153 155 155 158 158 163 165 167 167 160 159 157 154 153 152
106 122 149 265 316 316 318 306 60 56 94 290 288 183 155 204 196 207 191 181 198 167 172 278 253 266 302 326 283 257 250 275 292 222 213 180 190 201 198 185 187 189 199 183 172 166 168 168 166 170 181 181 185 184 187 187 186 184 183 182 177 184 176 170 164 160 156 154 158 157 155 162 160 161 165 166 170 171 170 165 162 159 154 151 150 152
158 230 147 138 16 330 340 333 268 20 87 213 204 205 202 166 197 165 93 136 279 211 158 154 246 254 268 316 320 8 308 251 232 223 188 191 192 199 195 190 185 185 172 175 177 172 163 170 182 189 187 187 186 187 186 187 190 186 186 182 183 181 173 165 162 159 160 157 156 162 165 168 169 169 172 173 171 173 167 165 159 159 158 153 159 160
183 164 157 195 195 182 190 198 201 197 209 178 81 139 189 197 182 150 234 181 237 176 155 216 244 255 281 316 332 330 326 261 268 223 212 199 185 196 194 181 180 179 188 182 176 164 183 191 186 184 192 191 191 188 188 190 189 187 185 188 179 171 170 171 162 161 157 162 162 169 175 175 176 179 177 174 173 172 170 165 164 164 164 167 165 163
173 175 196 205 202 216 216 77 35 78 60 192 208 182 203 202 202 204 226 213 218 146 198 227 235 281 280 265 268 268 239 223 223 202 198 202 201 198 185 180 182 185 182 184 185 185 162 170 193 197 194 196 193 189 188 186 185 184 182 182 183 178 172 167 162 163 165 170 172 173 181 182 184 179 178 176 172 168 169 171 171 171 173 172 168 168
98 201 217 218 225 222 136 159 192 165 183 206 178 205 194 197 195 198 209 225 106 219 255 231 149 241 248 231 242 232 250 255 244 223 216 213 193 180 182 183 172 169 178 172 172 175 188 195 192 193 197 196 197 190 184 184 185 185 184 185 182 176 171 167 167 171 175 173 178 183 186 187 182 179 177 171 166 169 169 168 170 172 165 164 174 179
162 217 216 171 239 234 169 125 163 168 189 190 197 200 197 204 197 204 220 218 153 212 239 228 171 228 245 222 222 203 207 214 210 208 205 184 161 163 160 169 181 188 177 181 196 193 186 186 194 196 197 200 190 189 185 180 183 183 186 186 182 175 179 170 171 177 178 180 185 190 185 180 180 175 169 166 165 166 169 169 169 167 167 172 176 175
134 232 189 183 235 238 229 175 173 172 188 197 216 213 208 201 206 208 220 220 214 232 242 248 227 234 235 223 214 206 213 221 248 74 110 154 179 172 172 179 179 179 187 197 199 194 192 195 194 197 194 192 194 189 184 185 187 188 185 186 181 179 181 170 182 180 182 187 191 184 179 179 177 176 168 169 173 173 170 169 169 170 172 175 172 166
161 225 139 171 223 246 228 176 171 174 170 227 233 225 220 212 209 208 217 226 223 239 244 244 258 261 235 180 220 216 170 81 100 172 193 187 167 171 173 175 181 189 197 201 194 194 197 197 197 191 194 198 195 193 189 192 189 181 184 185 182 185 184 178 182 185 185 191 187 180 176 178 184 175 179 178 172 174 172 172 169 172 174 170 168 172
178 253 79 138 206 254 171 173 188 191 204 236 252 239 215 151 202 216 219 220 198 225 236 244 251 255 240 195 144 78 130 156 184 194 189 186 179 167 174 182 187 196 199 199 197 191 193 197 197 196 199 200 199 194 191 189 183 179 193 188 187 187 175 183 186 187 191 191 182 182 183 186 181 181 182 173 179 176 173 168 170 174 174 170 173 178
189 148 155 173 197 244 157 168 182 146 183 280 247 239 193 198 211 216 222 219 213 215 221 223 236 240 234 157 163 185 174 185 192 192 194 180 185 184 182 185 195 200 202 195 189 193 198 202 201 199 201 198 197 195 200 184 174 192 193 187 190 169 178 189 191 191 192 190 186 187 185 181 184 185 180 184 178 173 169 170 173 176 176 183 179 165
158 172 189 169 192 225 148 154 127 145 205 229 261 129 175 197 207 213 222 220 222 201 221 221 235 245 147 169 179 185 184 195 188 203 190 174 176 192 206 206 204 204 201 193 194 198 207 203 203 204 202 199 199 199 188 178 188 197 188 181 169 179 189 189 194 193 194 190 190 187 182 181 181 185 187 181 177 173 175 176 185 183 179 170 169 183
182 192 201 166 168 200 143 121 158 208 225 240 65 325 176 196 194 206 225 224 223 220 230 241 246 214 187 179 190 186 189 186 189 176 200 180 157 169 190 206 209 203 201 200 206 213 207 202 200 200 199 208 199 182 166 189 195 168 164 175 181 190 189 193 192 195 195 193 190 181 181 181 179 185 185 185 182 180 183 185 182 179 182 180 185 186
187 189 169 193 155 61 153 175 215 223 252 312 257 124 114 115 190 193 233 238 228 221 218 228 232 207 192 189 186 182 176 183 171 207 175 173 168 166 179 203 213 199 202 206 201 207 198 195 196 194 205 188 160 180 184 191 174 168 185 176 186 188 192 189 193 199 195 194 188 185 183 180 185 189 188 185 184 185 189 189 187 185 183 181 188 194
177 182 178 214 177 208 185 205 231 351 317 271 259 180 158 167 157 175 221 244 227 219 215 221 222 181 192 190 172 127 161 129 62 283 220 178 204 203 188 210 201 199 203 204 194 203 196 193 191 194 155 164 180 177 192 173 166 175 165 177 190 183 186 186 198 203 199 195 189 188 187 188 189 190 188 185 185 192 194 189 190 190 180 182 191 183
186 182 189 201 206 197 204 227 266 242 244 251 229 234 200 192 174 184 198 260 238 209 211 208 198 175 186 180 138 143 98 73 261 257 274 269 214 168 187 196 194 194 199 181 153 132 142 154 147 155 159 160 178 187 167 159 165 166 172 184 180 179 189 193 207 204 196 198 193 192 191 192 190 189 188 185 193 196 198 195 195 192 183 187 186 192
279 315 197 198 191 165 210 221 217 223 242 250 235 192 181 157 142 103 183 252 246 171 191 191 175 179 182 161 155 122 108 184 225 231 222 207 190 182 158 174 170 176 174 171 162 150 158 161 153 149 138 147 173 183 161 161 161 166 183 183 183 186 192 205 210 200 199 202 195 191 191 190 190 191 189 193 199 195 195 196 195 188 183 196 195 200
205 190 166 218 208 198 200 218 229 218 251 263 222 213 166 130 116 108 207 249 244 151 182 169 177 176 166 159 146 153 167 205 224 236 197 181 167 175 160 150 143 127 119 126 103 143 142 131 106 112 137 172 195 163 163 159 164 178 183 187 175 187 205 211 209 203 202 192 185 187 188 189 191 193 192 198 197 195 201 191 180 186 187 193 192 190
184 214 206 208 210 217 215 234 258 270 261 221 186 152 139 148 128 155 226 263 183 179 179 174 172 160 154 158 163 173 211 199 197 172 130 120 106 114 67 86 124 135 141 150 139 120 127 149 149 165 181 186 153 150 153 153 159 181 182 169 177 205 215 212 192 185 189 182 180 184 189 189 192 195 199 196 196 193 190 187 190 181 183 188 186 180
206 197 249 217 225 219 220 229 233 256 232 157 256 157 170 112 204 217 233 26 126 84 93 151 150 142 151 162 183 187 162 113 110 108 124 138 137 140 127 119 106 71 45 76 120 134 133 149 140 121 117 118 145 149 151 155 166 175 161 170 203 219 209 164 182 178 174 181 187 189 189 192 196 197 196 190 175 179 190 186 174 183 185 183 184 191
179 175 189 204 208 245 194 234 219 236 225 133 122 59 288 191 255 143 136 17 49 142 136 118 145 168 154 154 116 115 124 124 139 140 132 136 134 141 146 147 150 157 158 140 147 211 141 156 168 172 161 132 138 152 156 153 162 163 169 187 223 211 167 185 170 176 181 186 190 192 192 193 191 191 186 185 186 184 190 178 177 181 176 180 187 196
169 176 184 218 181 206 189 210 214 214 125 178 151 184 178 191 204 192 124 77 14 103 104 114 75 153 146 134 141 134 136 130 86 121 120 132 132 124 137 143 138 142 154 177 165 169 158 150 151 158 116 126 151 156 162 159 163 171 179 219 220 154 174 169 177 170 183 193 197 194 195 193 192 191 187 185 180 185 182 182 181 177 182 183 187 194
208 202 183 195 180 195 206 197 266 275 171 168 61 14 119 146 146 188 104 129 123 285 63 106 149 135 153 142 137 140 135 169 159 165 156 176 160 158 158 179 177 181 182 182 187 159 155 165 171 162 196 182 172 180 175 177 164 178 200 228 160 186 174 177 168 179 191 198 197 196 195 186 190 190 189 184 176 182 186 180 170 181 186 176 191 195
5 176 316 92 282 83 37 177 353 8 143 143 49 63 113 100 299 85 117 116 215 166 173 169 169 152 134 146 128 166 159 166 156 183 158 154 165 182 175 172 214 177 135 135 133 142 153 128 125 153 196 225 196 191 194 196 177 179 219 183 176 183 175 167 175 188 202 198 197 197 179 186 196 193 190 183 188 192 189 183 183 189 183 186 197 199
281 182 74 126 267 160 234 119 153 165 134 187 61 65 67 113 146 96 135 162 159 157 173 238 159 155 156 154 153 159 170 168 165 168 166 162 174 178 183 193 200 191 179 189 176 138 133 144 157 195 198 215 214 196 206 205 214 218 204 169 181 172 172 176 184 195 196 199 195 186 181 190 193 190 188 189 192 194 187 184 186 188 189 194 198 204
273 183 85 210 199 183 234 139 194 337 289 154 119 102 119 125 142 176 208 240 162 170 159 172 126 116 138 157 166 153 161 170 158 166 170 180 182 186 192 197 197 183 216 167 156 154 144 170 191 205 198 219 218 198 202 209 222 225 209 151 162 161 165 185 191 197 201 199 188 188 189 196 189 182 190 195 188 190 195 198 192 194 201 198 201 201
183 137 192 188 160 183 39 20 186 102 71 205 284 283 207 172 166 197 209 158 147 160 165 120 147 156 167 170 161 146 147 183 179 169 171 182 185 183 196 196 189 188 165 164 179 168 183 188 199 208 198 223 208 194 203 217 225 212 202 184 159 158 173 195 202 207 205 192 185 200 194 196 189 195 191 195 201 212 202 193 195 206 219 220 207 204
107 196 199 102 109 197 198 189 163 133 205 206 225 210 205 195 170 167 153 159 175 168 163 139 68 67 154 160 160 155 162 179 186 170 173 178 185 194 191 188 182 177 185 185 169 187 194 196 196 198 207 229 200 198 209 224 227 200 193 181 173 167 183 190 185 203 214 195 198 200 188 201 201 199 199 198 204 210 233 243 228 225 220 227 210 225
188 186 151 170 186 217 189 152 183 117 151 182 185 200 188 175 160 166 177 183 196 181 162 142 131 132 172 205 198 164 168 170 182 175 172 179 199 196 186 176 175 184 185 167 160 195 201 207 199 201 219 232 194 205 216 226 207 187 192 184 182 177 187 173 191 209 216 198 212 203 198 197 203 204 206 208 206 211 222 239 244 237 237 239 223 225